| time (UTC) | temp C | wind direction | speed KPH | gust KPH | rain 1hr cm | rain 24hr cm | rain mn cm | humidity % | barometer mb |
| 20260506110944 | 23 | 174 | 0.0 | 0.0 | 0.00 | 0.00 | 0.00 | 88 | 1004.2 |
| 20260506110442 | 23 | 174 | 0.0 | 0.0 | 0.00 | 0.00 | 0.00 | 88 | 1004.2 |
| 20260506105946 | 23 | 174 | 0.0 | 0.0 | 0.00 | 0.00 | 0.00 | 88 | 1004.0 |
| 20260506105434 | 23 | 173 | 0.0 | 0.0 | 0.00 | 0.00 | 0.00 | 87 | 1004.0 |
| 20260506105003 | 23 | 178 | 0.0 | 0.0 | 0.00 | 0.00 | 0.00 | 87 | 1004.0 |
| 20260506104448 | 23 | 176 | 0.0 | 0.0 | 0.00 | 0.00 | 0.00 | 87 | 1003.9 |
| 20260506103934 | 23 | 175 | 0.0 | 0.0 | 0.00 | 0.00 | 0.00 | 87 | 1003.9 |
| 20260506103421 | 23 | 175 | 0.0 | 0.0 | 0.00 | 0.00 | 0.00 | 87 | 1003.9 |
| 20260506102927 | 23 | 175 | 0.0 | 0.0 | 0.00 | 0.00 | 0.00 | 87 | 1003.8 |
| 20260506102413 | 23 | 175 | 0.0 | 0.0 | 0.00 | 0.00 | 0.00 | 86 | 1003.8 |
| 20260506101943 | 23 | 175 | 0.0 | 0.0 | 0.00 | 0.00 | 0.00 | 86 | 1003.8 |
| 20260506101408 | 23 | 175 | 0.0 | 1.6 | 0.00 | 0.00 | 0.00 | 86 | 1003.4 |
| 20260506100857 | 23 | 175 | 0.0 | 1.6 | 0.00 | 0.00 | 0.00 | 86 | 1003.4 |
| 20260506100408 | 23 | 174 | 0.0 | 0.0 | 0.00 | 0.00 | 0.00 | 86 | 1003.4 |
| 20260506095859 | 23 | 185 | 0.0 | 4.8 | 0.00 | 0.00 | 0.00 | 86 | 1003.5 |
| 20260506095406 | 23 | 188 | 0.0 | 4.8 | 0.00 | 0.00 | 0.00 | 86 | 1003.5 |
| 20260506094854 | 23 | 174 | 0.0 | 4.8 | 0.00 | 0.00 | 0.00 | 86 | 1003.5 |
| 20260506094340 | 23 | 174 | 0.0 | 14.5 | 0.00 | 0.00 | 0.00 | 85 | 1003.2 |
| 20260506093847 | 23 | 166 | 3.2 | 14.5 | 0.00 | 0.00 | 0.00 | 85 | 1003.2 |
| 20260506093354 | 23 | 200 | 0.0 | 4.8 | 0.00 | 0.00 | 0.00 | 85 | 1003.2 |
| 20260506092838 | 23 | 200 | 0.0 | 6.4 | 0.00 | 0.00 | 0.00 | 85 | 1002.9 |
| 20260506092404 | 23 | 198 | 1.6 | 6.4 | 0.00 | 0.00 | 0.00 | 85 | 1002.9 |
| 20260506091831 | 23 | 161 | 3.2 | 6.4 | 0.00 | 0.00 | 0.00 | 85 | 1002.9 |
| 20260506091514 | 23 | 170 | 1.6 | 6.4 | 0.00 | 0.00 | 0.00 | 85 | 1002.9 |
| 20260506090937 | 23 | 140 | 0.0 | 8.0 | 0.00 | 0.00 | 0.00 | 85 | 1002.9 |
| 20260506090458 | 23 | 218 | 1.6 | 11.3 | 0.00 | 0.00 | 0.00 | 85 | 1002.9 |
| 20260506085943 | 23 | 179 | 1.6 | 11.3 | 0.00 | 0.00 | 0.00 | 85 | 1002.7 |
| 20260506085449 | 23 | 171 | 1.6 | 11.3 | 0.00 | 0.00 | 0.00 | 85 | 1002.7 |
| 20260506084934 | 23 | 182 | 4.8 | 11.3 | 0.00 | 0.00 | 0.00 | 84 | 1002.7 |
| 20260506084421 | 23 | 275 | 1.6 | 9.7 | 0.00 | 0.00 | 0.00 | 84 | 1002.8 |
| 20260506083927 | 23 | 191 | 4.8 | 9.7 | 0.00 | 0.00 | 0.00 | 84 | 1002.8 |
| 20260506083414 | 23 | 227 | 1.6 | 8.0 | 0.00 | 0.00 | 0.00 | 84 | 1002.8 |
| 20260506082921 | 23 | 225 | 1.6 | 11.3 | 0.00 | 0.00 | 0.00 | 84 | 1002.8 |
| 20260506082413 | 23 | 180 | 1.6 | 12.9 | 0.00 | 0.00 | 0.00 | 84 | 1002.8 |
| 20260506081919 | 23 | 184 | 4.8 | 14.5 | 0.00 | 0.00 | 0.00 | 84 | 1002.8 |
| 20260506081404 | 23 | 238 | 1.6 | 14.5 | 0.00 | 0.00 | 0.00 | 84 | 1002.9 |
| 20260506080911 | 23 | 206 | 3.2 | 16.1 | 0.00 | 0.00 | 0.00 | 84 | 1002.9 |
| 20260506080402 | 23 | 191 | 4.8 | 16.1 | 0.00 | 0.00 | 0.00 | 84 | 1002.9 |
| 20260506073349 | 23 | 194 | 1.6 | 16.1 | 0.00 | 0.00 | 0.00 | 84 | 1003.0 |
| 20260506072836 | 24 | 140 | 3.2 | 16.1 | 0.00 | 0.00 | 0.00 | 84 | 1003.2 |
| 20260506072405 | 23 | 178 | 3.2 | 17.7 | 0.00 | 0.00 | 0.00 | 84 | 1003.2 |
| 20260506071854 | 23 | 233 | 9.7 | 19.3 | 0.00 | 0.00 | 0.00 | 84 | 1003.2 |
| 20260506071441 | 23 | 169 | 6.4 | 19.3 | 0.00 | 0.00 | 0.00 | 84 | 1003.3 |
| 20260506070949 | 23 | 163 | 6.4 | 17.7 | 0.00 | 0.00 | 0.00 | 84 | 1003.3 |
| 20260506070505 | 23 | 179 | 3.2 | 17.7 | 0.00 | 0.00 | 0.00 | 85 | 1003.3 |
| 20260506062436 | 24 | 143 | 4.8 | 16.1 | 0.00 | 0.00 | 0.00 | 84 | 1002.9 |
| 20260506061944 | 24 | 237 | 4.8 | 17.7 | 0.00 | 0.00 | 0.00 | 84 | 1003.0 |
| 20260506061408 | 24 | 156 | 3.2 | 17.7 | 0.00 | 0.00 | 0.00 | 84 | 1003.0 |
| 20260506060915 | 23 | 221 | 4.8 | 17.7 | 0.00 | 0.00 | 0.00 | 85 | 1002.9 |
| 20260506060415 | 23 | 187 | 6.4 | 16.1 | 0.00 | 0.00 | 0.00 | 85 | 1002.9 |
| 20260506050938 | 24 | 184 | 4.8 | 16.1 | 0.00 | 0.00 | 0.00 | 84 | 1003.4 |
| 20260506050436 | 24 | 164 | 3.2 | 17.7 | 0.00 | 0.00 | 0.00 | 84 | 1003.4 |
| 20260506044935 | 24 | 178 | 4.8 | 16.1 | 0.00 | 0.00 | 0.00 | 84 | 1003.1 |
| 20260506044419 | 24 | 165 | 3.2 | 16.1 | 0.00 | 0.00 | 0.00 | 84 | 1003.2 |
| 20260506043927 | 24 | 164 | 4.8 | 11.3 | 0.00 | 0.00 | 0.00 | 84 | 1003.2 |
| 20260506043434 | 24 | 146 | 3.2 | 16.1 | 0.00 | 0.00 | 0.00 | 84 | 1003.2 |
| 20260506042919 | 24 | 159 | 1.6 | 20.9 | 0.00 | 0.00 | 0.00 | 83 | 1002.9 |
| 20260506042426 | 24 | 192 | 4.8 | 20.9 | 0.00 | 0.00 | 0.00 | 83 | 1002.9 |
| 20260506041914 | 24 | 183 | 4.8 | 12.9 | 0.00 | 0.00 | 0.00 | 83 | 1002.9 |
| 20260506041439 | 24 | 169 | 6.4 | 11.3 | 0.00 | 0.00 | 0.00 | 83 | 1002.9 |
| 20260506040903 | 24 | 198 | 4.8 | 17.7 | 0.00 | 0.00 | 0.00 | 83 | 1002.9 |
| 20260506040401 | 25 | 185 | 4.8 | 17.7 | 0.00 | 0.00 | 0.00 | 83 | 1002.9 |
| 20260506035908 | 25 | 186 | 6.4 | 9.7 | 0.00 | 0.00 | 0.00 | 82 | 1002.8 |
| 20260506035352 | 25 | 205 | 1.6 | 4.8 | 0.00 | 0.00 | 0.00 | 81 | 1002.8 |
| 20260506034900 | 25 | 207 | 0.0 | 11.3 | 0.00 | 0.00 | 0.00 | 81 | 1002.8 |
| 20260506034406 | 25 | 188 | 0.0 | 11.3 | 0.00 | 0.00 | 0.00 | 81 | 1002.4 |
| 20260506033853 | 25 | 193 | 4.8 | 11.3 | 0.00 | 0.00 | 0.00 | 81 | 1002.4 |
| 20260506033401 | 25 | 206 | 3.2 | 11.3 | 0.00 | 0.00 | 0.00 | 81 | 1002.4 |
| 20260506032846 | 25 | 184 | 1.6 | 11.3 | 0.00 | 0.00 | 0.00 | 82 | 1002.4 |
| 20260506032332 | 24 | 196 | 6.4 | 11.3 | 0.00 | 0.00 | 0.00 | 82 | 1002.4 |
| 20260506031842 | 24 | 171 | 0.0 | 1.6 | 0.00 | 0.00 | 0.00 | 81 | 1002.4 |
| 20260506031348 | 24 | 177 | 0.0 | 1.6 | 0.00 | 0.00 | 0.00 | 81 | 1002.1 |
| 20260506030952 | 25 | 175 | 0.0 | 0.0 | 0.00 | 0.00 | 0.00 | 81 | 1002.2 |
| 20260506030449 | 25 | 169 | 0.0 | 4.8 | 0.00 | 0.00 | 0.00 | 81 | 1002.2 |
| 20260506025934 | 25 | 165 | 1.6 | 4.8 | 0.00 | 0.00 | 0.00 | 80 | 1002.1 |
| 20260506025442 | 25 | 190 | 0.0 | 4.8 | 0.00 | 0.00 | 0.00 | 80 | 1002.1 |
| 20260506024932 | 25 | 191 | 3.2 | 6.4 | 0.00 | 0.00 | 0.00 | 80 | 1002.1 |
| 20260506024439 | 25 | 180 | 0.0 | 8.0 | 0.00 | 0.00 | 0.00 | 79 | 1001.8 |
| 20260506023925 | 25 | 198 | 3.2 | 8.0 | 0.00 | 0.00 | 0.00 | 79 | 1001.8 |
| 20260506023452 | 25 | 153 | 0.0 | 4.8 | 0.00 | 0.00 | 0.00 | 79 | 1001.8 |
| 20260506022917 | 25 | 188 | 0.0 | 8.0 | 0.00 | 0.00 | 0.00 | 78 | 1001.5 |
| 20260506022424 | 25 | 182 | 1.6 | 8.0 | 0.00 | 0.00 | 0.00 | 78 | 1001.5 |
| 20260506021911 | 25 | 165 | 3.2 | 4.8 | 0.00 | 0.00 | 0.00 | 78 | 1001.5 |
| 20260506021417 | 25 | 182 | 1.6 | 6.4 | 0.00 | 0.00 | 0.00 | 77 | 1001.3 |
| 20260506020904 | 25 | 182 | 1.6 | 8.0 | 0.00 | 0.00 | 0.00 | 77 | 1001.3 |
| 20260506020402 | 26 | 170 | 1.6 | 8.0 | 0.00 | 0.00 | 0.00 | 77 | 1001.3 |
| 20260506015909 | 26 | 165 | 3.2 | 6.4 | 0.00 | 0.00 | 0.00 | 76 | 1000.9 |
| 20260506015356 | 26 | 140 | 0.0 | 9.7 | 0.00 | 0.00 | 0.00 | 76 | 1000.9 |
| 20260506014924 | 26 | 191 | 3.2 | 9.7 | 0.00 | 0.00 | 0.00 | 76 | 1000.9 |
| 20260506014349 | 26 | 155 | 4.8 | 9.7 | 0.00 | 0.00 | 0.00 | 76 | 1000.8 |
| 20260506013916 | 26 | 180 | 4.8 | 9.7 | 0.00 | 0.00 | 0.00 | 75 | 1000.8 |
| 20260506013342 | 26 | 174 | 4.8 | 9.7 | 0.00 | 0.00 | 0.00 | 75 | 1000.8 |
| 20260506012848 | 26 | 217 | 1.6 | 9.7 | 0.00 | 0.00 | 0.00 | 75 | 1000.8 |
| 20260506012333 | 26 | 175 | 4.8 | 11.3 | 0.00 | 0.00 | 0.00 | 75 | 1000.8 |
| 20260506011842 | 26 | 146 | 3.2 | 11.3 | 0.00 | 0.00 | 0.00 | 74 | 1000.8 |
| 20260506011327 | 26 | 360 | 4.8 | 9.7 | 0.00 | 0.00 | 0.00 | 74 | 1000.7 |
| 20260506010936 | 26 | 360 | 4.8 | 11.3 | 0.00 | 0.00 | 0.00 | 74 | 1000.7 |
| 20260506010454 | 26 | 181 | 4.8 | 11.3 | 0.00 | 0.00 | 0.00 | 73 | 1000.7 |
| 20260506005939 | 27 | 360 | 3.2 | 8.0 | 0.00 | 0.00 | 0.00 | 73 | 1000.7 |
| 20260506005446 | 27 | 360 | 4.8 | 16.1 | 0.00 | 0.00 | 0.00 | 73 | 1000.7 |
| 20260506004954 | 27 | 360 | 4.8 | 16.1 | 0.00 | 0.00 | 0.00 | 72 | 1000.7 |
| 20260506004439 | 27 | 131 | 8.0 | 16.1 | 0.00 | 0.00 | 0.00 | 71 | 1000.7 |
| 20260506003927 | 27 | 149 | 6.4 | 16.1 | 0.00 | 0.00 | 0.00 | 71 | 1000.7 |
| 20260506003434 | 27 | 137 | 4.8 | 14.5 | 0.00 | 0.00 | 0.00 | 71 | 1000.7 |
| 20260506002920 | 27 | 170 | 6.4 | 16.1 | 0.00 | 0.00 | 0.00 | 71 | 1000.8 |
| 20260506002427 | 27 | 146 | 8.0 | 16.1 | 0.00 | 0.00 | 0.00 | 71 | 1000.8 |
| 20260506001914 | 27 | 151 | 6.4 | 14.5 | 0.00 | 0.00 | 0.00 | 71 | 1000.8 |
| 20260506001420 | 27 | 169 | 6.4 | 14.5 | 0.00 | 0.00 | 0.00 | 71 | 1000.8 |
| 20260506000907 | 27 | 107 | 3.2 | 9.7 | 0.00 | 0.00 | 0.00 | 71 | 1000.8 |
| 20260506000405 | 27 | 151 | 4.8 | 17.7 | 0.00 | 0.00 | 0.00 | 71 | 1000.8 |
| 20260505235912 | 27 | 163 | 8.0 | 17.7 | 0.00 | 0.00 | 0.00 | 70 | 1000.7 |
| 20260505235358 | 27 | 159 | 3.2 | 11.3 | 0.00 | 0.00 | 0.00 | 71 | 1000.7 |
| 20260505234849 | 27 | 123 | 1.6 | 8.0 | 0.00 | 0.00 | 0.00 | 71 | 1000.7 |
| 20260505234355 | 28 | 149 | 4.8 | 11.3 | 0.00 | 0.00 | 0.00 | 70 | 1000.6 |
| 20260505233859 | 28 | 159 | 4.8 | 16.1 | 0.00 | 0.00 | 0.00 | 70 | 1000.6 |
| 20260505233347 | 28 | 118 | 8.0 | 16.1 | 0.00 | 0.00 | 0.00 | 70 | 1000.6 |
| 20260505232854 | 28 | 153 | 8.0 | 16.1 | 0.00 | 0.00 | 0.00 | 70 | 1000.6 |
| 20260505232340 | 28 | 195 | 4.8 | 16.1 | 0.00 | 0.00 | 0.00 | 69 | 1000.6 |
| 20260505231849 | 28 | 126 | 6.4 | 16.1 | 0.00 | 0.00 | 0.00 | 69 | 1000.6 |
| 20260505231334 | 28 | 158 | 4.8 | 16.1 | 0.00 | 0.00 | 0.00 | 69 | 1000.4 |
| 20260505230959 | 28 | 169 | 4.8 | 16.1 | 0.00 | 0.00 | 0.00 | 68 | 1000.4 |
| 20260505230457 | 28 | 128 | 9.7 | 16.1 | 0.00 | 0.00 | 0.00 | 68 | 1000.4 |
| 20260505225943 | 28 | 144 | 6.4 | 11.3 | 0.00 | 0.00 | 0.00 | 68 | 1000.3 |
| 20260505225450 | 28 | 263 | 3.2 | 11.3 | 0.00 | 0.00 | 0.00 | 68 | 1000.3 |
| 20260505224938 | 28 | 156 | 6.4 | 19.3 | 0.00 | 0.00 | 0.00 | 68 | 1000.3 |
| 20260505224443 | 28 | 123 | 6.4 | 19.3 | 0.00 | 0.00 | 0.00 | 68 | 1000.4 |
| 20260505223930 | 28 | 156 | 4.8 | 16.1 | 0.00 | 0.00 | 0.00 | 68 | 1000.4 |
| 20260505223421 | 28 | 130 | 4.8 | 17.7 | 0.00 | 0.00 | 0.00 | 67 | 1000.4 |
| 20260505222927 | 28 | 195 | 8.0 | 17.7 | 0.00 | 0.00 | 0.00 | 67 | 1000.1 |
| 20260505222414 | 28 | 119 | 8.0 | 17.7 | 0.00 | 0.00 | 0.00 | 67 | 1000.1 |
| 20260505221920 | 28 | 118 | 4.8 | 17.7 | 0.00 | 0.00 | 0.00 | 68 | 1000.1 |
| 20260505221408 | 28 | 139 | 11.3 | 17.7 | 0.00 | 0.00 | 0.00 | 67 | 1000.2 |
| 20260505220915 | 29 | 225 | 3.2 | 17.7 | 0.00 | 0.00 | 0.00 | 67 | 1000.3 |
| 20260505220408 | 29 | 154 | 6.4 | 17.7 | 0.00 | 0.00 | 0.00 | 67 | 1000.3 |
| 20260505215914 | 29 | 149 | 6.4 | 17.7 | 0.00 | 0.00 | 0.00 | 67 | 1000.5 |
| 20260505215402 | 29 | 155 | 9.7 | 17.7 | 0.00 | 0.00 | 0.00 | 66 | 1000.5 |
| 20260505214931 | 29 | 172 | 8.0 | 25.7 | 0.00 | 0.00 | 0.00 | 66 | 1000.5 |
| 20260505214356 | 29 | 202 | 8.0 | 25.7 | 0.00 | 0.00 | 0.00 | 66 | 1000.7 |
| 20260505213844 | 29 | 136 | 8.0 | 17.7 | 0.00 | 0.00 | 0.00 | 66 | 1000.7 |
| 20260505213351 | 30 | 149 | 4.8 | 20.9 | 0.00 | 0.00 | 0.00 | 66 | 1000.7 |
| 20260505212858 | 29 | 194 | 8.0 | 20.9 | 0.00 | 0.00 | 0.00 | 65 | 1000.7 |
| 20260505212344 | 29 | 133 | 9.7 | 17.7 | 0.00 | 0.00 | 0.00 | 64 | 1000.7 |
| 20260505211851 | 29 | 235 | 6.4 | 19.3 | 0.00 | 0.00 | 0.00 | 64 | 1000.7 |
| 20260505211336 | 30 | 149 | 12.9 | 19.3 | 0.00 | 0.00 | 0.00 | 63 | 1001.0 |
| 20260505210448 | 30 | 133 | 6.4 | 19.3 | 0.00 | 0.00 | 0.00 | 65 | 1001.0 |
| 20260505205932 | 29 | 130 | 4.8 | 20.9 | 0.00 | 0.00 | 0.00 | 66 | 1001.1 |
| 20260505205439 | 29 | 151 | 9.7 | 24.1 | 0.00 | 0.00 | 0.00 | 66 | 1001.1 |
| 20260505205008 | 30 | 156 | 9.7 | 24.1 | 0.00 | 0.00 | 0.00 | 65 | 1001.1 |
| 20260505204432 | 30 | 150 | 3.2 | 24.1 | 0.00 | 0.00 | 0.00 | 66 | 1001.1 |
| 20260505204001 | 30 | 242 | 11.3 | 24.1 | 0.00 | 0.00 | 0.00 | 65 | 1001.1 |
| 20260505203427 | 30 | 245 | 6.4 | 25.7 | 0.00 | 0.00 | 0.00 | 65 | 1001.1 |
| 20260505202933 | 29 | 213 | 6.4 | 25.7 | 0.00 | 0.00 | 0.00 | 66 | 1001.3 |
| 20260505202420 | 29 | 196 | 8.0 | 19.3 | 0.00 | 0.00 | 0.00 | 66 | 1001.3 |
| 20260505201927 | 29 | 136 | 6.4 | 19.3 | 0.00 | 0.00 | 0.00 | 66 | 1001.3 |
| 20260505201413 | 29 | 216 | 4.8 | 17.7 | 0.00 | 0.00 | 0.00 | 67 | 1001.8 |
| 20260505200941 | 28 | 170 | 8.0 | 17.7 | 0.00 | 0.00 | 0.00 | 67 | 1001.7 |
| 20260505200418 | 28 | 202 | 4.8 | 19.3 | 0.00 | 0.00 | 0.00 | 67 | 1001.7 |
| 20260505195904 | 28 | 171 | 8.0 | 24.1 | 0.00 | 0.00 | 0.00 | 67 | 1001.8 |
| 20260505195432 | 28 | 232 | 9.7 | 24.1 | 0.00 | 0.00 | 0.00 | 67 | 1001.8 |
| 20260505194856 | 28 | 207 | 9.7 | 20.9 | 0.00 | 0.00 | 0.00 | 67 | 1001.8 |
| 20260505194404 | 28 | 206 | 4.8 | 24.1 | 0.00 | 0.00 | 0.00 | 68 | 1002.1 |
| 20260505193851 | 28 | 155 | 4.8 | 24.1 | 0.00 | 0.00 | 0.00 | 69 | 1002.1 |
| 20260505193358 | 28 | 163 | 8.0 | 24.1 | 0.00 | 0.00 | 0.00 | 68 | 1002.1 |
| 20260505192843 | 28 | 147 | 4.8 | 17.7 | 0.00 | 0.00 | 0.00 | 68 | 1002.2 |
| 20260505192410 | 28 | 125 | 6.4 | 17.7 | 0.00 | 0.00 | 0.00 | 69 | 1002.2 |
| 20260505191838 | 28 | 202 | 6.4 | 17.7 | 0.00 | 0.00 | 0.00 | 68 | 1002.2 |
| 20260505191342 | 28 | 173 | 8.0 | 17.7 | 0.00 | 0.00 | 0.00 | 69 | 1002.4 |
| 20260505190830 | 28 | 211 | 9.7 | 19.3 | 0.00 | 0.00 | 0.00 | 69 | 1002.4 |
| 20260505190449 | 27 | 254 | 8.0 | 19.3 | 0.00 | 0.00 | 0.00 | 69 | 1002.3 |
| 20260505185933 | 27 | 191 | 6.4 | 17.7 | 0.00 | 0.00 | 0.00 | 69 | 1002.5 |
| 20260505185441 | 27 | 175 | 8.0 | 17.7 | 0.00 | 0.00 | 0.00 | 70 | 1002.5 |
| 20260505184929 | 27 | 180 | 9.7 | 17.7 | 0.00 | 0.00 | 0.00 | 69 | 1002.5 |
| 20260505184436 | 27 | 139 | 6.4 | 17.7 | 0.00 | 0.00 | 0.00 | 71 | 1002.9 |
| 20260505183923 | 27 | 217 | 6.4 | 22.5 | 0.00 | 0.00 | 0.00 | 71 | 1002.9 |
| 20260505183430 | 27 | 161 | 11.3 | 20.9 | 0.00 | 0.00 | 0.00 | 69 | 1002.9 |
| 20260505182915 | 27 | 197 | 9.7 | 19.3 | 0.00 | 0.00 | 0.00 | 70 | 1003.2 |
| 20260505182422 | 27 | 209 | 9.7 | 17.7 | 0.00 | 0.00 | 0.00 | 72 | 1003.2 |
| 20260505181932 | 26 | 214 | 6.4 | 16.1 | 0.00 | 0.00 | 0.00 | 72 | 1003.1 |
| 20260505181417 | 26 | 259 | 8.0 | 22.5 | 0.00 | 0.00 | 0.00 | 72 | 1003.3 |
| 20260505180904 | 26 | 261 | 11.3 | 22.5 | 0.00 | 0.00 | 0.00 | 73 | 1003.3 |
| 20260505180402 | 26 | 234 | 8.0 | 17.7 | 0.00 | 0.00 | 0.00 | 73 | 1003.3 |
| 20260505175907 | 25 | 161 | 3.2 | 19.3 | 0.00 | 0.00 | 0.00 | 76 | 1003.4 |
| 20260505175354 | 25 | 209 | 8.0 | 24.1 | 0.00 | 0.00 | 0.00 | 75 | 1003.4 |
| 20260505174901 | 25 | 207 | 8.0 | 24.1 | 0.00 | 0.00 | 0.00 | 75 | 1003.4 |
| 20260505174406 | 25 | 186 | 16.1 | 24.1 | 0.00 | 0.00 | 0.00 | 75 | 1003.6 |
| 20260505173914 | 25 | 208 | 8.0 | 19.3 | 0.00 | 0.00 | 0.00 | 76 | 1003.5 |
| 20260505173359 | 25 | 360 | 6.4 | 17.7 | 0.00 | 0.00 | 0.00 | 76 | 1003.5 |
| 20260505172844 | 25 | 360 | 6.4 | 24.1 | 0.00 | 0.00 | 0.00 | 78 | 1003.7 |
| 20260505172351 | 24 | 128 | 8.0 | 24.1 | 0.00 | 0.00 | 0.00 | 78 | 1003.7 |
| 20260505171858 | 24 | 227 | 11.3 | 22.5 | 0.00 | 0.00 | 0.00 | 78 | 1003.7 |
| 20260505171342 | 24 | 214 | 6.4 | 19.3 | 0.00 | 0.00 | 0.00 | 78 | 1003.9 |
| 20260505170835 | 24 | 202 | 8.0 | 17.7 | 0.00 | 0.00 | 0.00 | 78 | 1003.9 |
| 20260505170451 | 23 | 230 | 8.0 | 20.9 | 0.00 | 0.00 | 0.00 | 78 | 1003.8 |
| 20260505165955 | 23 | 278 | 11.3 | 20.9 | 0.00 | 0.00 | 0.00 | 79 | 1003.9 |
| 20260505165503 | 23 | 228 | 6.4 | 17.7 | 0.00 | 0.00 | 0.00 | 79 | 1003.9 |
| 20260505164931 | 23 | 236 | 6.4 | 19.3 | 0.00 | 0.00 | 0.00 | 80 | 1003.9 |
| 20260505164437 | 23 | 238 | 8.0 | 19.3 | 0.00 | 0.00 | 0.00 | 79 | 1003.9 |
| 20260505163924 | 23 | 259 | 9.7 | 17.7 | 0.00 | 0.00 | 0.00 | 80 | 1003.9 |
| 20260505163432 | 23 | 228 | 6.4 | 17.7 | 0.00 | 0.00 | 0.00 | 80 | 1003.9 |
| 20260505162917 | 23 | 153 | 1.6 | 14.5 | 0.00 | 0.00 | 0.00 | 81 | 1003.8 |
| 20260505162424 | 23 | 164 | 6.4 | 17.7 | 0.00 | 0.00 | 0.00 | 81 | 1003.8 |
| 20260505161934 | 22 | 239 | 12.9 | 22.5 | 0.00 | 0.00 | 0.00 | 81 | 1003.8 |
| 20260505161418 | 22 | 248 | 6.4 | 22.5 | 0.00 | 0.00 | 0.00 | 82 | 1003.7 |
| 20260505160908 | 22 | 277 | 6.4 | 20.9 | 0.00 | 0.00 | 0.00 | 82 | 1003.7 |
| 20260505160405 | 22 | 240 | 12.9 | 20.9 | 0.00 | 0.00 | 0.00 | 82 | 1003.7 |
| 20260505153343 | 22 | 196 | 8.0 | 20.9 | 0.00 | 0.00 | 0.00 | 83 | 1003.8 |
| 20260505152849 | 22 | 227 | 8.0 | 16.1 | 0.00 | 0.00 | 0.00 | 82 | 1003.9 |
| 20260505152335 | 22 | 237 | 4.8 | 20.9 | 0.00 | 0.00 | 0.00 | 82 | 1003.9 |
| 20260505151845 | 22 | 239 | 12.9 | 20.9 | 0.00 | 0.00 | 0.00 | 82 | 1003.9 |
| 20260505151336 | 22 | 244 | 8.0 | 17.7 | 0.00 | 0.00 | 0.00 | 83 | 1003.5 |
| 20260505150843 | 22 | 266 | 8.0 | 19.3 | 0.00 | 0.00 | 0.00 | 83 | 1003.5 |
| 20260505150442 | 22 | 208 | 8.0 | 19.3 | 0.00 | 0.00 | 0.00 | 83 | 1003.5 |
| 20260505140409 | 22 | 252 | 6.4 | 19.3 | 0.00 | 0.00 | 0.00 | 83 | 1003.0 |
| 20260505124930 | 21 | 233 | 4.8 | 19.3 | 0.00 | 0.00 | 0.00 | 83 | 1002.4 |
| 20260505124437 | 21 | 188 | 6.4 | 24.1 | 0.00 | 0.00 | 0.00 | 83 | 1002.3 |
| 20260505123925 | 21 | 243 | 6.4 | 24.1 | 0.00 | 0.00 | 0.00 | 84 | 1002.3 |
| 20260505123433 | 21 | 145 | 6.4 | 16.1 | 0.00 | 0.00 | 0.00 | 84 | 1002.3 |
| 20260505122918 | 21 | 181 | 6.4 | 16.1 | 0.00 | 0.00 | 0.00 | 84 | 1002.1 |
| 20260505122425 | 21 | 190 | 3.2 | 14.5 | 0.00 | 0.00 | 0.00 | 84 | 1002.1 |
| 20260505121932 | 21 | 161 | 3.2 | 19.3 | 0.00 | 0.00 | 0.00 | 84 | 1002.1 |
| 20260505121438 | 21 | 150 | 4.8 | 19.3 | 0.00 | 0.00 | 0.00 | 84 | 1001.8 |
| 20260505120925 | 21 | 198 | 3.2 | 16.1 | 0.00 | 0.00 | 0.00 | 84 | 1001.8 |
| 20260505120417 | 21 | 188 | 6.4 | 17.7 | 0.00 | 0.00 | 0.00 | 84 | 1001.8 |
| 20260505115903 | 21 | 263 | 1.6 | 17.7 | 0.00 | 0.00 | 0.00 | 84 | 1001.6 |
| 20260505115408 | 21 | 210 | 3.2 | 16.1 | 0.00 | 0.00 | 0.00 | 84 | 1001.6 |
| 20260505114855 | 21 | 167 | 3.2 | 11.3 | 0.00 | 0.00 | 0.00 | 84 | 1001.6 |
| 20260505114401 | 21 | 188 | 3.2 | 22.5 | 0.00 | 0.00 | 0.00 | 84 | 1001.7 |
| 20260505113849 | 21 | 207 | 6.4 | 22.5 | 0.00 | 0.00 | 0.00 | 84 | 1001.7 |
| 20260505113356 | 21 | 138 | 3.2 | 14.5 | 0.00 | 0.00 | 0.00 | 84 | 1001.7 |
| 20260505112842 | 21 | 213 | 3.2 | 12.9 | 0.00 | 0.00 | 0.00 | 84 | 1001.8 |
| 20260505112350 | 21 | 238 | 6.4 | 16.1 | 0.00 | 0.00 | 0.00 | 84 | 1001.8 |
| 20260505111837 | 21 | 178 | 4.8 | 16.1 | 0.00 | 0.00 | 0.00 | 83 | 1001.8 |
| 20260505111343 | 21 | 200 | 3.2 | 14.5 | 0.00 | 0.00 | 0.00 | 83 | 1001.7 |